CFG2368 EDDF-VTSP

Flight info

Callsign CFG2368
Flight time N/A
Altitude 31000
Route CINDY Z74 HAREM DCT ASLEP DCT TAKUT L603 BESNI L605 MIQ DCT ALUTU DCT BIBAG L605 ESEGA DCT VELOM DCT GOTAR DCT INVED DCT LUGEB DCT UDROS UM859 KARDE UN644 ROLIN DCT TAGAR DCT BT DCT BARAD M747 SULEL N449 DUKAN B449 DOLOS B475 RUBAD A846 RANAH L750 UPVAL L750 MERUN L333 KKJ L759 SATVA
Aircraft A339/H-SDE1E2E3GHIJ1J4J7LM1OP2RVWXYZ/LB1D1

Departure

Time N/A
Airport Frankfurt Main Airport (EDDF)

Arrival

Time 2026-05-04 06:57
Airport Phuket International Airport (VTSP)
Time Latitude Longitude Altitude Speed Heading
2026-05-04 05:13 17.08929 89.06545 34908 ft 503 kts 137°
2026-05-04 05:13 17.06445 89.09123 34911 ft 503 kts 137°
2026-05-04 05:13 17.01479 89.14269 34917 ft 502 kts 137°
2026-05-04 05:14 16.96513 89.19405 34914 ft 502 kts 137°
2026-05-04 05:14 16.91560 89.24537 34912 ft 502 kts 137°
2026-05-04 05:15 16.86605 89.29655 34918 ft 501 kts 137°
2026-05-04 05:15 16.81682 89.34736 34917 ft 501 kts 137°
2026-05-04 05:16 16.76697 89.39882 34919 ft 501 kts 137°
2026-05-04 05:16 16.71777 89.44963 34918 ft 501 kts 137°
2026-05-04 05:17 16.66819 89.50066 34917 ft 500 kts 137°
2026-05-04 05:17 16.61872 89.55154 34922 ft 500 kts 137°
2026-05-04 05:18 16.57728 89.59416 34919 ft 499 kts 137°
2026-05-04 05:18 16.52783 89.64507 34916 ft 499 kts 137°
2026-05-04 05:19 16.47835 89.69587 34919 ft 499 kts 137°
2026-05-04 05:19 16.42891 89.74660 34918 ft 499 kts 137°
2026-05-04 05:20 16.37943 89.79734 34919 ft 499 kts 137°
2026-05-04 05:20 16.32995 89.84805 34913 ft 499 kts 137°
2026-05-04 05:21 16.28086 89.89833 34915 ft 499 kts 137°
2026-05-04 05:21 16.23140 89.94898 34922 ft 499 kts 137°
2026-05-04 05:22 16.18192 89.99956 34920 ft 498 kts 137°
2026-05-04 05:22 16.13252 90.05001 34924 ft 498 kts 137°
2026-05-04 05:23 16.08313 90.10039 34919 ft 497 kts 137°
2026-05-04 05:23 16.03376 90.15082 34921 ft 497 kts 137°
2026-05-04 05:24 16.00906 90.17603 34774 ft 498 kts 137°
2026-05-04 05:24 15.98465 90.20142 34765 ft 494 kts 137°
2026-05-04 05:24 15.96063 90.22669 35141 ft 490 kts 136°
2026-05-04 05:24 15.93676 90.25186 35369 ft 490 kts 136°
2026-05-04 05:25 15.88846 90.30263 35142 ft 496 kts 136°
2026-05-04 05:25 15.86417 90.32808 34960 ft 495 kts 136°
2026-05-04 05:25 15.83995 90.35347 34917 ft 496 kts 136°
2026-05-04 05:26 15.79130 90.40432 34916 ft 495 kts 136°
2026-05-04 05:26 15.74277 90.45510 34920 ft 495 kts 136°
2026-05-04 05:28 15.54837 90.65784 34918 ft 495 kts 137°
2026-05-04 05:29 15.49980 90.70843 34924 ft 495 kts 137°
2026-05-04 05:29 15.45118 90.75903 34917 ft 495 kts 137°
2026-05-04 05:31 15.25691 90.96090 34916 ft 495 kts 137°
2026-05-04 05:32 15.20824 91.01137 34917 ft 495 kts 137°
2026-05-04 05:33 15.13517 91.08708 34914 ft 495 kts 137°
2026-05-04 05:33 15.08648 91.13749 34914 ft 495 kts 137°
2026-05-04 05:34 15.03779 91.18786 34910 ft 495 kts 137°
2026-05-04 05:34 14.98906 91.23821 34911 ft 495 kts 136°
2026-05-04 05:35 14.94036 91.28854 34912 ft 495 kts 137°
2026-05-04 05:35 14.89165 91.33887 34911 ft 495 kts 137°
2026-05-04 05:36 14.84288 91.38919 34918 ft 496 kts 137°
2026-05-04 05:36 14.79408 91.43945 34909 ft 495 kts 137°
2026-05-04 05:37 14.74563 91.48944 34914 ft 496 kts 137°
2026-05-04 05:37 14.69678 91.53977 34916 ft 496 kts 137°
2026-05-04 05:38 14.62330 91.61528 34916 ft 497 kts 137°
2026-05-04 05:38 14.57431 91.66569 34920 ft 498 kts 137°
2026-05-04 05:39 14.50070 91.74132 34916 ft 498 kts 137°
2026-05-04 05:40 14.42709 91.81688 34912 ft 498 kts 137°
2026-05-04 05:40 14.37798 91.86723 34915 ft 498 kts 137°
2026-05-04 05:41 14.32883 91.91758 34916 ft 498 kts 137°
2026-05-04 05:41 14.27977 91.96780 34911 ft 498 kts 137°
2026-05-04 05:42 14.23071 92.01828 34907 ft 498 kts 136°
2026-05-04 05:42 14.18230 92.06947 34916 ft 499 kts 136°
2026-05-04 05:43 14.13389 92.12069 34921 ft 499 kts 136°
2026-05-04 05:45 13.93965 92.32500 34914 ft 500 kts 136°
2026-05-04 05:47 13.74070 92.52461 34917 ft 499 kts 137°
2026-05-04 05:47 13.69094 92.57437 34916 ft 499 kts 138°
2026-05-04 05:48 13.64153 92.62378 34914 ft 499 kts 137°
2026-05-04 05:48 13.59175 92.67349 34907 ft 499 kts 137°
2026-05-04 05:49 13.54186 92.72332 34908 ft 500 kts 137°
2026-05-04 05:49 13.49195 92.77317 34910 ft 501 kts 137°
2026-05-04 05:51 13.29235 92.97199 34917 ft 499 kts 137°
2026-05-04 05:52 13.24251 93.02164 34915 ft 499 kts 137°
2026-05-04 05:52 13.19266 93.07125 34913 ft 499 kts 137°
2026-05-04 05:54 12.99347 93.26896 34915 ft 497 kts 137°
2026-05-04 05:55 12.94385 93.31822 34914 ft 496 kts 137°
2026-05-04 05:55 12.89453 93.36706 34925 ft 496 kts 137°
2026-05-04 05:56 12.84492 93.41619 34911 ft 497 kts 137°
2026-05-04 05:56 12.79523 93.46534 34924 ft 496 kts 137°
2026-05-04 05:57 12.74556 93.51449 34915 ft 496 kts 137°
2026-05-04 05:57 12.69603 93.56351 34914 ft 494 kts 137°
2026-05-04 05:58 12.64656 93.61237 34925 ft 494 kts 137°
2026-05-04 05:58 12.59713 93.66117 34917 ft 493 kts 137°
2026-05-04 05:59 12.54771 93.70991 34904 ft 493 kts 137°
2026-05-04 05:59 12.49839 93.75866 34911 ft 493 kts 137°
2026-05-04 06:00 12.44897 93.80734 34907 ft 493 kts 137°
2026-05-04 06:00 12.39951 93.85602 34909 ft 494 kts 137°
2026-05-04 06:01 12.35007 93.90472 34932 ft 492 kts 137°
2026-05-04 06:03 12.15380 94.09846 34903 ft 490 kts 137°
2026-05-04 06:05 11.93493 94.31585 34904 ft 486 kts 137°
2026-05-04 06:06 11.88637 94.36395 34903 ft 486 kts 137°
2026-05-04 06:06 11.83793 94.41212 34901 ft 486 kts 136°
2026-05-04 06:07 11.79306 94.46385 34905 ft 487 kts 132°
2026-05-04 06:07 11.75614 94.50731 34910 ft 487 kts 132°
2026-05-04 06:08 11.71167 94.55952 34903 ft 487 kts 132°
2026-05-04 06:08 11.66718 94.61176 34903 ft 488 kts 132°
2026-05-04 06:09 11.62267 94.66402 34917 ft 488 kts 132°
2026-05-04 06:11 11.44413 94.87311 34915 ft 489 kts 132°
2026-05-04 06:13 11.26534 95.08213 34921 ft 489 kts 132°
2026-05-04 06:14 11.10967 95.26397 34913 ft 487 kts 132°
2026-05-04 06:15 11.06521 95.31585 34915 ft 486 kts 132°
2026-05-04 06:15 11.02076 95.36768 34894 ft 486 kts 132°
2026-05-04 06:16 10.97621 95.41958 34912 ft 487 kts 132°
2026-05-04 06:16 10.93161 95.47136 34897 ft 487 kts 132°
2026-05-04 06:17 10.88710 95.52313 34901 ft 486 kts 132°
2026-05-04 06:17 10.84255 95.57493 34887 ft 487 kts 132°
2026-05-04 06:18 10.79792 95.62684 34894 ft 488 kts 132°
2026-05-04 06:20 10.61901 95.83408 34897 ft 491 kts 131°
2026-05-04 06:21 10.50634 95.96516 34945 ft 492 kts 131°
2026-05-04 06:22 10.46144 96.01715 34904 ft 485 kts 131°
2026-05-04 06:25 10.15265 96.37376 34928 ft 481 kts 131°
2026-05-04 06:26 10.10862 96.42477 34910 ft 480 kts 131°
2026-05-04 06:26 10.06462 96.47562 34888 ft 480 kts 131°
2026-05-04 06:27 9.94883 96.59807 34892 ft 482 kts 136°
2026-05-04 06:28 9.89966 96.64447 34892 ft 483 kts 137°
2026-05-04 06:28 9.85029 96.69075 34909 ft 484 kts 137°
2026-05-04 06:29 9.80089 96.73700 34911 ft 483 kts 137°
2026-05-04 06:29 9.75158 96.78330 34882 ft 484 kts 136°
2026-05-04 06:30 9.70201 96.82982 34891 ft 487 kts 137°
2026-05-04 06:30 9.65234 96.87633 34905 ft 486 kts 137°
2026-05-04 06:31 9.60281 96.92279 34903 ft 485 kts 137°
2026-05-04 06:31 9.55317 96.96924 34903 ft 485 kts 137°
2026-05-04 06:33 9.35560 97.15437 34887 ft 484 kts 137°
2026-05-04 06:34 9.30607 97.20068 34902 ft 484 kts 137°
2026-05-04 06:34 9.28138 97.22377 34599 ft 483 kts 137°
2026-05-04 06:34 9.25669 97.24682 33962 ft 483 kts 137°
2026-05-04 06:35 9.23189 97.26997 32775 ft 487 kts 136°
2026-05-04 06:36 9.05630 97.43393 25823 ft 458 kts 136°
2026-05-04 06:37 9.03313 97.45555 25207 ft 451 kts 136°
2026-05-04 06:37 9.01009 97.47706 24555 ft 447 kts 136°
2026-05-04 06:37 8.98732 97.49831 23874 ft 443 kts 136°
2026-05-04 06:37 8.96470 97.51939 23150 ft 439 kts 136°
2026-05-04 06:38 8.94244 97.54014 22498 ft 432 kts 136°
2026-05-04 06:38 8.92054 97.56056 21840 ft 424 kts 136°
2026-05-04 06:40 8.77647 97.69448 17396 ft 379 kts 136°
2026-05-04 06:40 8.75722 97.71234 16808 ft 372 kts 136°
2026-05-04 06:40 8.73858 97.72962 16233 ft 365 kts 136°
2026-05-04 06:40 8.72003 97.74682 15651 ft 359 kts 136°
2026-05-04 06:41 8.70177 97.76372 15034 ft 354 kts 136°
2026-05-04 06:41 8.68377 97.78036 14478 ft 347 kts 136°
2026-05-04 06:41 8.66609 97.79679 13935 ft 342 kts 136°
2026-05-04 06:41 8.64858 97.81304 13354 ft 346 kts 136°
2026-05-04 06:42 8.63012 97.83018 12772 ft 371 kts 136°
2026-05-04 06:42 8.61088 97.84801 12157 ft 378 kts 136°
2026-05-04 06:42 8.59153 97.86593 11571 ft 376 kts 136°
2026-05-04 06:44 8.47025 97.96793 9275 ft 290 kts 163°
2026-05-04 06:44 8.45039 97.97167 9150 ft 290 kts 169°
2026-05-04 06:44 8.43049 97.97492 8848 ft 289 kts 169°
2026-05-04 06:45 8.41080 97.97828 8477 ft 283 kts 168°
2026-05-04 06:45 8.39174 97.98159 8115 ft 273 kts 169°
2026-05-04 06:45 8.37340 97.98479 7760 ft 262 kts 168°
2026-05-04 06:45 8.35581 97.98793 7419 ft 254 kts 168°
2026-05-04 06:46 8.33722 97.99129 7120 ft 287 kts 168°
2026-05-04 06:46 8.31747 97.99495 7085 ft 288 kts 168°
2026-05-04 06:46 8.29799 97.99774 7014 ft 276 kts 173°
2026-05-04 06:46 8.27941 97.99948 6911 ft 259 kts 173°
2026-05-04 06:48 8.16775 98.01118 4937 ft 222 kts 172°
2026-05-04 06:48 8.15245 98.01271 4593 ft 221 kts 173°
2026-05-04 06:49 8.13734 98.01408 4277 ft 220 kts 173°
2026-05-04 06:50 8.08962 98.07984 3224 ft 212 kts 79°
2026-05-04 06:51 8.09222 98.09439 3024 ft 206 kts 81°
2026-05-04 06:51 8.09411 98.10818 2966 ft 191 kts 84°
2026-05-04 06:51 8.09539 98.12110 2965 ft 182 kts 86°
2026-05-04 06:51 8.09646 98.13387 2878 ft 182 kts 86°
2026-05-04 06:52 8.09759 98.14647 2742 ft 177 kts 85°
2026-05-04 06:52 8.09875 98.15826 2675 ft 164 kts 86°
2026-05-04 06:52 8.09971 98.16955 2505 ft 159 kts 86°
2026-05-04 06:52 8.10059 98.18044 2354 ft 150 kts 87°
2026-05-04 06:53 8.10142 98.19070 2138 ft 145 kts 86°
2026-05-04 06:53 8.10245 98.20079 1852 ft 145 kts 87°
2026-05-04 06:53 8.10344 98.21088 1632 ft 144 kts 88°
2026-05-04 06:53 8.10438 98.22085 1724 ft 146 kts 88°
2026-05-04 06:54 8.10523 98.23165 1600 ft 163 kts 87°
2026-05-04 06:54 8.10630 98.24327 1295 ft 166 kts 86°
2026-05-04 06:54 8.10733 98.25461 1028 ft 158 kts 88°
2026-05-04 06:54 8.10842 98.26536 761 ft 150 kts 85°
2026-05-04 06:55 8.10926 98.27562 470 ft 144 kts 86°
2026-05-04 06:55 8.11013 98.28529 279 ft 136 kts 84°
2026-05-04 06:55 8.11119 98.29501 177 ft 136 kts 85°
2026-05-04 06:55 8.11204 98.30442 57 ft 142 kts 86°
2026-05-04 06:56 8.11289 98.31361 39 ft 109 kts 84°
2026-05-04 06:57 8.11228 98.32114 70 ft 23 kts 264°
2026-05-04 06:58 8.11211 98.31935 61 ft 28 kts 264°
2026-05-04 06:58 8.11193 98.31747 54 ft 24 kts 264°
2026-05-04 06:58 8.11181 98.31625 49 ft 28 kts 264°
2026-05-04 06:58 8.11161 98.31418 41 ft 31 kts 264°
2026-05-04 06:59 8.11142 98.31226 37 ft 25 kts 264°
2026-05-04 06:59 8.11131 98.31088 36 ft 18 kts 265°
2026-05-04 06:59 8.11104 98.30966 35 ft 19 kts 243°
2026-05-04 06:59 8.11079 98.30829 35 ft 21 kts 264°
2026-05-04 07:01 8.10601 98.30389 33 ft 4 kts 148°
2026-05-04 07:01 8.10595 98.30415 33 ft 5 kts 105°
2026-05-04 07:02 8.10587 98.30448 33 ft 1 kts 104°
2026-05-04 07:02 8.10584 98.30459 33 ft 3 kts 104°
2026-05-04 07:02 8.10583 98.30462 33 ft 0 kts 104°